TimeCET,TemperatureF,Dew PointF,Humidity,Sea Level PressureIn,VisibilityMPH,Wind Direction,Wind SpeedMPH,Gust SpeedMPH,PrecipitationIn,Events,Conditions,WindDirDegrees,DateUTC
12:55 AM,44.6,42.8,93,29.27,6.2,NNE,5.8,-,N/A,,Mostly Cloudy,20,2013-03-13 23:55:00
1:00 AM,45,43,90,29.27,9,NNE,5.8,,,,Partly Cloudy,20,2013-03-14 00:00:00
1:55 AM,42.8,41.0,93,29.24,6.2,NNE,6.9,-,N/A,,Mostly Cloudy,30,2013-03-14 00:55:00
2:55 AM,41.0,39.2,93,29.21,6.2,NE,4.6,-,N/A,,Scattered Clouds,50,2013-03-14 01:55:00
3:55 AM,42.8,41.0,93,29.18,6.2,North,3.5,-,N/A,,Partly Cloudy,10,2013-03-14 02:55:00
4:00 AM,42,40,92,29.20,7,North,3.5,,,,Scattered Clouds,10,2013-03-14 03:00:00
4:55 AM,42.8,41.0,93,29.18,6.2,North,4.6,-,N/A,,Partly Cloudy,10,2013-03-14 03:55:00
5:55 AM,42.8,41.0,93,29.15,5.0,North,6.9,-,N/A,,Scattered Clouds,10,2013-03-14 04:55:00
6:55 AM,42.8,41.0,93,29.15,5.6,NE,4.6,-,N/A,,Scattered Clouds,40,2013-03-14 05:55:00
7:00 AM,43,42,92,29.16,6,NE,4.6,,,,Mist,40,2013-03-14 06:00:00
9:55 AM,50.0,44.6,82,29.12,6.2,North,11.5,-,N/A,,Scattered Clouds,350,2013-03-14 08:55:00
10:00 AM,49,45,79,29.13,9,North,11.5,,,,Partly Cloudy,350,2013-03-14 09:00:00
10:55 AM,51.8,42.8,71,29.12,6.2,North,12.7,-,N/A,,Scattered Clouds,10,2013-03-14 09:55:00
11:55 AM,53.6,42.8,67,29.12,6.2,NNW,9.2,-,N/A,,Scattered Clouds,340,2013-03-14 10:55:00
1:00 PM,54,43,58,29.14,12,NNW,9.2,,,,Partly Cloudy,330,2013-03-14 12:00:00
1:55 PM,57.2,42.8,59,29.12,6.2,NW,17.3,28.8,N/A,,Scattered Clouds,320,2013-03-14 12:55:00
3:55 PM,55.4,33.8,44,29.12,6.2,NNW,15.0,-,N/A,,Partly Cloudy,330,2013-03-14 14:55:00
4:00 PM,56,35,32,29.15,16,NNW,15.0,,,,Scattered Clouds,330,2013-03-14 15:00:00
4:55 PM,53.6,35.6,51,29.15,6.2,NNW,11.5,-,N/A,,Partly Cloudy,330,2013-03-14 15:55:00
5:55 PM,51.8,33.8,50,29.18,6.2,NNW,9.2,-,N/A,,Partly Cloudy,340,2013-03-14 16:55:00
6:55 PM,50.0,32.0,50,29.21,6.2,NNW,12.7,-,N/A,,Partly Cloudy,340,2013-03-14 17:55:00
7:00 PM,50,32,37,29.22,7,NNW,12.7,,,,Partly Cloudy,340,2013-03-14 18:00:00
7:55 PM,50.0,30.2,47,29.24,6.2,NNW,10.4,-,N/A,,Partly Cloudy,330,2013-03-14 18:55:00
8:55 PM,46.4,32.0,57,29.24,6.2,NW,10.4,-,N/A,,Partly Cloudy,310,2013-03-14 19:55:00
10:00 PM,44,36,66,29.28,7,NW,8.1,,,,Scattered Clouds,310,2013-03-14 21:00:00
10:55 PM,42.8,37.4,81,29.27,6.2,WNW,5.8,-,N/A,,Partly Cloudy,290,2013-03-14 21:55:00
11:55 PM,42.8,37.4,81,29.30,6.2,NW,5.8,-,N/A,,Partly Cloudy,310,2013-03-14 22:55:00